Tracking 35331 objects as of 14-Sep-2026
HD Live streaming from Space Station
objects crossing your sky now

COSMOS 1375 DEB


COSMOS 1375 DEB is no longer on orbit


NORAD ID: 21658
Int'l Code: 1982-055BN
Launch date: June 6, 1982
Source: Commonwealth of Independent States (former USSR) (CIS)
Launch site: PLESETSK MISSILE AND SPACE COMPLEX (PKMTR)
Decay date: 2001-09-24

Note: This is SATELLITE DEBRIS
Your satellite tracking list
Your tracking list is empty




NASA's NSSDC Master Catalog

Two Line Element Set (TLE):
1 21658U 82055BN  01266.00568201 +.03465679 +13748-1 +12382-1 0  9990
2 21658 065.5531 142.6118 0028215 142.8887 217.4497 15.91255289550931
Source of the keplerian elements: AFSPC